Regional Weather Roundup
Issued by NWS Charleston, WV

Home | Current Version | Previous Version | Graphics & Text | Print | Product List | Glossary On
Versions: 1 2 3 4 5 6 7 8 9 10 11 12 13 14 15 16 17 18 19 20 21 22 23 24 25 26 27 28 29 30 31 32 33 34 35 36 37 38 39 40 41 42 43 44 45 46 47 48 49 50
000
ASUS41 KRLX 170810
RWRRLX
West Virginia Regional Weather Roundup
National Weather Service Charleston WV
400 AM EDT TUE OCT 17 2017

Note: "fair" indicates few or no clouds below 12,000 feet with no
significant weather and/or obstructions to visibility.

WVZ003-170900-
Northern Panhandle of West Virginia

CITY           SKY/WX    TMP DP  RH WIND       PRES   REMARKS
WHEELING       CLEAR     38  34  85 CALM      30.31S
$$

WVZ009-170900-
Northwest West Virginia

CITY           SKY/WX    TMP DP  RH WIND       PRES   REMARKS
PARKERSBURG    FOG       37  36  96 CALM      30.35S VSB 1/4
$$

WVZ006-170900-
Western West Virginia

CITY           SKY/WX    TMP DP  RH WIND       PRES   REMARKS
HUNTINGTON     CLEAR     39  37  92 CALM      30.32S
$$

WVZ015-170900-
West Central West Virginia

CITY           SKY/WX    TMP DP  RH WIND       PRES   REMARKS
CHARLESTON     FOG       40  39  97 CALM      30.32S VSB 1/2
$$

WVZ022-031-170900-
North Central West Virginia

CITY           SKY/WX    TMP DP  RH WIND       PRES   REMARKS
CLARKSBURG     FOG       36  34  92 CALM      30.31F VSB 1/2
MORGANTOWN     CLEAR     38  35  89 CALM      30.32S
$$

WVZ025-035-042-045-170900-
Southern West Virginia

CITY           SKY/WX    TMP DP  RH WIND       PRES   REMARKS
BECKLEY        CLEAR     36  33  89 CALM      30.30S
LOGAN            N/A     41  41 100 CALM      30.31S
BLUEFIELD      CLEAR     38  33  82 CALM      30.30S
LEWISBURG      CLEAR     35  33  92 CALM      30.30S
$$

WVZ047-170900-
Northern Mountains of West Virginia

CITY           SKY/WX    TMP DP  RH WIND       PRES   REMARKS
ELKINS         FOG       37  35  92 CALM      30.32R VSB 1/2
$$

WVZ052-170900-
Eastern Panhandle of West Virginia

CITY           SKY/WX    TMP DP  RH WIND       PRES   REMARKS
MARTINSBURG    CLEAR     40  34  79 CALM      30.29S
PETERSBURG     CLEAR     34  34  99 CALM      30.32R
$$



USA.gov is the U.S. government's official web portal to all federal, state and local government web resources and services.